User: anonymous   Login
Location: ??
(34.9170°N, 135.5016°E)
Time: 22:54:17
(UTC+00:00)
Language:

SL-27 R/B - Orbit

View from above orbital plane
View from above orbital plane
View from above satellite
View from above satellite

Ground track
Ground track

The orbit data is extracted from the following two-line orbital elements,

1 40354U 14084B   21018.37143699  .00001069  00000-0  26882-4 0  9993
2 40354  74.7386 303.3326 0036268  21.6503 338.6232 15.40713509341229
Epoch (UTC): 18 January 2021 08:54:52
Eccentricity: 0.0036268
inclination: 74.7386°
perigee height: 419 km
apogee height: 469 km
right ascension of ascending node: 303.3326°
argument of perigee: 21.6503°
revolutions per day: 15.40713509
mean anomaly at epoch: 338.6232°
orbit number at epoch: 34122

The dashed part of the orbit path shows where the satellite is in the earth's shadow,  

DLR